Location: Oroua River
(40.4333°S, 175.4333°E)
Time: 14:11:35
(UTC+00:00)

MOZ.5/SAFIR/RUBIN 5/SL-8 - Pass Details

Date: 03 February 2023
Orbit: 675 x 704 km, 98.2° (Epoch: 22 March)

Event Time Altitude Azimuth Distance (km) Brightness Sun altitude
Rises 14:42:02 0° 171° (S) 3,089 8.2 -25.6°
Reaches altitude 10° 14:44:18 10° 173° (S) 2,169 7.1 -25.3°
Enters shadow 14:48:58 66° 251° (WSW) 764 3.8 -24.8°
